Terminal Aerodrome Forecast
Issued by NWS Shreveport, LA

Home | Current Version | Previous Version | Text Only | Print | Product List | Glossary On
Versions: 1 2 3 4 5 6 7 8 9 10 11 12 13 14 15
000
FTUS44 KSHV 021100 RRA
TAFTXK
TAF
KTXK 021148Z 0212/0312 05006KT 5SM BR OVC007
      TEMPO 0214/0218 2SM -RA BR OVC004
     FM021800 08006KT 5SM BR OVC007
     FM030000 08003KT 4SM BR OVC003
     FM030700 12003KT 2SM BR OVC003=

USA.gov is the U.S. government's official web portal to all federal, state and local government web resources and services.